Humidity-temperature Sensor

Selected Measurement Type: Relative Humidity

 
Relative Humidity [%]     6 entries per hour
Showing data from 4/14/2021 (00:00:00 Z) to 4/11/2021 (00:01:00 Z)
Previous Next [ Day | 3-Days | 7-Days ]
First Last
Prev [ Day | 3-Days | 7-Days ] Next
First Last

Start Time:     :
End Time:     :     
Time (in GMT) :00 :50 :40 :30 :20 :10
Previous Next [ Day | 3-Days | 7-Days ]
First Last
Prev [ Day | 3-Days | 7-Days ] Next
First Last


123 => good data
MM => data is determined as missing
-- => data not received/configured
Back to Top Back to Top
4/14/2021 00:00 to 23:10 98.28 98.34 98.53 98.55 98.71 98.75
4/13/2021 23:00 to 22:10 98.69 98.71 98.88 98.73 98.59 98.51
4/13/2021 22:00 to 21:10 98.81 98.65 98.77 98.92 98.79 98.73
4/13/2021 21:00 to 20:10 98.59 98.67 98.65 98.26 98.07 97.85
4/13/2021 20:00 to 19:10 97.50 96.94 96.84 96.64 96.90 96.82
4/13/2021 19:00 to 18:10 97.19 97.27 97.17 97.01 96.80 96.47
4/13/2021 18:00 to 17:10 96.39 96.59 96.82 96.61 95.87 94.81
4/13/2021 17:00 to 16:10 93.31 92.57 92.07 92.01 91.87 91.33
4/13/2021 16:00 to 15:10 90.59 90.41 90.49 90.96 91.21 91.52
4/13/2021 15:00 to 14:10 91.27 91.60 91.85 91.46 91.58 91.54
4/13/2021 14:00 to 13:10 91.87 92.18 92.38 92.55 92.30 92.55
4/13/2021 13:00 to 12:10 92.85 93.00 93.24 93.49 93.74 93.74
4/13/2021 12:00 to 11:10 93.59 93.43 93.18 93.24 93.14 93.08
4/13/2021 11:00 to 10:10 93.41 94.03 94.64 95.28 95.83 96.08
4/13/2021 10:00 to 9:10 96.49 96.45 96.20 95.65 95.07 94.19
4/13/2021 09:00 to 8:10 93.53 93.64 91.68 88.46 86.79 86.36
4/13/2021 08:00 to 7:10 86.46 86.69 86.75 87.08 87.45 87.76
4/13/2021 07:00 to 6:10 88.35 88.66 89.07 88.91 89.22 89.28
4/13/2021 06:00 to 5:10 88.54 87.94 87.88 87.31 86.65 86.61
4/13/2021 05:00 to 4:10 86.53 86.44 87.66 89.92 92.36 93.80
4/13/2021 04:00 to 3:10 95.18 96.39 97.13 97.21 97.38 97.38
4/13/2021 03:00 to 2:10 98.59 98.63 98.75 98.69 98.67 98.69
4/13/2021 02:00 to 1:10 98.71 98.67 98.79 98.32 98.24 97.91
4/13/2021 01:00 to 0:10 97.44 97.19 96.51 95.79 94.70 92.63
4/13/2021 00:00 to 23:10 89.11 82.21 81.37 81.26 81.41 81.10
4/12/2021 23:00 to 22:10 80.46 79.25 78.70 79.50 79.58 79.58
4/12/2021 22:00 to 21:10 79.99 79.72 79.60 79.37 79.27 79.52
4/12/2021 21:00 to 20:10 79.97 80.09 79.39 79.56 80.20 80.26
4/12/2021 20:00 to 19:10 80.32 80.42 80.46 80.75 81.12 81.33
4/12/2021 19:00 to 18:10 81.24 81.61 81.43 81.90 81.78 82.37
4/12/2021 18:00 to 17:10 82.13 82.42 82.60 82.17 82.02 82.21
4/12/2021 17:00 to 16:10 82.17 82.09 82.66 83.53 84.02 84.20
4/12/2021 16:00 to 15:10 84.68 84.80 84.31 84.12 84.31 84.96
4/12/2021 15:00 to 14:10 84.96 85.05 84.96 84.76 84.06 83.59
4/12/2021 14:00 to 13:10 81.80 80.87 80.26 80.38 80.92 82.13
4/12/2021 13:00 to 12:10 82.64 83.26 83.55 83.65 83.44 83.63
4/12/2021 12:00 to 11:10 84.20 84.33 83.42 81.39 80.40 81.74
4/12/2021 11:00 to 10:10 81.35 80.79 81.12 82.05 82.39 81.39
4/12/2021 10:00 to 9:10 81.37 81.96 82.79 82.95 82.66 82.74
4/12/2021 09:00 to 8:10 83.24 83.53 83.61 83.42 83.42 83.48
4/12/2021 08:00 to 7:10 83.77 83.69 83.75 84.18 84.43 84.20
4/12/2021 07:00 to 6:10 84.59 84.45 84.53 84.66 84.70 84.78
4/12/2021 06:00 to 5:10 85.00 84.61 84.41 84.12 83.92 83.85
4/12/2021 05:00 to 4:10 83.61 83.26 83.24 83.34 83.44 83.36
4/12/2021 04:00 to 3:10 83.24 83.46 83.73 84.00 83.96 84.00
4/12/2021 03:00 to 2:10 84.20 83.89 83.55 83.30 82.95 82.56
4/12/2021 02:00 to 1:10 82.29 82.05 81.86 81.53 81.04 80.44
4/12/2021 01:00 to 0:10 80.13 80.03 79.54 78.74 77.38 75.74
4/12/2021 00:00 to 23:10 73.99 72.80 72.37 73.62 75.06 78.39
4/11/2021 23:00 to 22:10 80.05 80.57 80.85 80.55 79.91 79.72
4/11/2021 22:00 to 21:10 79.81 79.21 79.17 78.82 77.92 77.81
4/11/2021 21:00 to 20:10 77.77 77.36 77.05 77.13 78.20 81.92
4/11/2021 20:00 to 19:10 84.02 86.13 87.72 89.01 89.77 90.41
4/11/2021 19:00 to 18:10 91.19 91.19 91.25 91.56 92.11 93.22
4/11/2021 18:00 to 17:10 94.19 94.81 94.97 95.71 96.33 97.07
4/11/2021 17:00 to 16:10 97.03 96.84 96.70 96.64 96.45 95.90
4/11/2021 16:00 to 15:10 94.66 93.22 91.56 91.77 92.18 92.55
4/11/2021 15:00 to 14:10 92.67 91.70 90.22 89.38 89.46 89.50
4/11/2021 14:00 to 13:10 89.55 89.65 89.65 89.53 89.42 89.42
4/11/2021 13:00 to 12:10 89.73 90.12 90.53 90.45 90.39 90.24
4/11/2021 12:00 to 11:10 90.18 90.20 90.24 90.24 90.29 90.35
4/11/2021 11:00 to 10:10 90.39 90.33 90.45 90.43 90.47 90.61
4/11/2021 10:00 to 9:10 90.66 90.78 90.68 90.66 90.57 90.39
4/11/2021 09:00 to 8:10 90.22 89.85 89.77 89.38 89.18 89.30
4/11/2021 08:00 to 7:10 89.30 89.11 89.03 88.81 88.77 88.60
4/11/2021 07:00 to 6:10 88.60 88.46 88.29 88.11 87.98 87.78
4/11/2021 06:00 to 5:10 87.63 87.59 87.66 87.57 87.49 87.26
4/11/2021 05:00 to 4:10 87.29 87.12 86.92 86.77 86.81 86.79
4/11/2021 04:00 to 3:10 86.75 86.77 86.92 87.12 87.14 86.96
4/11/2021 03:00 to 2:10 86.77 86.77 86.63 86.34 86.20 86.34
4/11/2021 02:00 to 1:10 86.63 86.83 86.55 86.05 85.17 84.35
4/11/2021 01:00 to 0:10 83.94 83.46 83.42 83.07 82.39 81.86